| time (UTC) | temp F | wind direction | speed knots | gust knots | rain 1hr in | rain 24hr in | rain mn in | humidity % | barometer mb |
| 20260904054524 | 69 | 237 | 7.0 | 14.8 | 0.00 | 0.06 | 0.00 | 90 | 1011.7 |
| 20260904054024 | 69 | 204 | 7.0 | 14.8 | 0.00 | 0.06 | 0.00 | 90 | 1011.7 |
| 20260904053523 | 69 | 193 | 7.8 | 15.6 | 0.00 | 0.06 | 0.00 | 90 | 1011.9 |
| 20260904053022 | 69 | 177 | 7.8 | 16.5 | 0.00 | 0.06 | 0.00 | 90 | 1011.9 |
| 20260904052523 | 69 | 229 | 8.7 | 17.4 | 0.00 | 0.06 | 0.00 | 90 | 1012.0 |
| 20260904052024 | 69 | 213 | 7.8 | 23.5 | 0.00 | 0.06 | 0.00 | 90 | 1012.1 |
| 20260904051525 | 69 | 272 | 6.1 | 23.5 | 0.00 | 0.06 | 0.00 | 90 | 1012.1 |
| 20260904051139 | 69 | 217 | 8.7 | 18.2 | 0.00 | 0.06 | 0.00 | 89 | 1012.2 |
| 20260904051047 | 69 | 210 | 7.0 | 15.6 | 0.00 | 0.06 | 0.00 | 89 | 1012.3 |
| 20260904050021 | 69 | 222 | 9.6 | 18.2 | 0.00 | 0.06 | 0.00 | 89 | 1012.5 |
| 20260904045655 | 69 | 204 | 8.7 | 23.5 | 0.00 | 0.06 | 0.00 | 89 | 1012.6 |
| 20260904045552 | 69 | 241 | 10.4 | 23.5 | 0.00 | 0.06 | 0.00 | 89 | 1012.5 |
| 20260904044634 | 69 | 237 | 7.8 | 23.5 | 0.00 | 0.06 | 0.00 | 89 | 1012.7 |
| 20260904044544 | 69 | 197 | 7.8 | 20.0 | 0.00 | 0.06 | 0.00 | 89 | 1012.7 |
| 20260904043522 | 69 | 215 | 8.7 | 23.5 | 0.00 | 0.06 | 0.00 | 89 | 1012.7 |
| 20260904043022 | 69 | 210 | 7.8 | 15.6 | 0.00 | 0.06 | 0.00 | 89 | 1012.8 |
| 20260904042519 | 69 | 179 | 7.0 | 15.6 | 0.00 | 0.06 | 0.00 | 89 | 1012.8 |
| 20260904042017 | 69 | 255 | 7.8 | 15.6 | 0.00 | 0.06 | 0.00 | 89 | 1013.0 |
| 20260904041957 | 69 | 197 | 7.0 | 15.6 | 0.00 | 0.06 | 0.00 | 89 | 1013.0 |
| 20260904041018 | 69 | 182 | 7.8 | 15.6 | 0.00 | 0.06 | 0.00 | 89 | 1013.1 |
| 20260904040518 | 69 | 216 | 8.7 | 20.0 | 0.00 | 0.06 | 0.00 | 89 | 1013.1 |
| 20260904040019 | 69 | 236 | 7.8 | 20.0 | 0.00 | 0.06 | 0.00 | 89 | 1013.2 |
| 20260904035522 | 69 | 207 | 7.8 | 17.4 | 0.00 | 0.06 | 0.00 | 89 | 1013.3 |
| 20260904035018 | 69 | 214 | 8.7 | 18.2 | 0.00 | 0.06 | 0.00 | 89 | 1013.3 |
| 20260904034521 | 69 | 258 | 8.7 | 18.2 | 0.00 | 0.06 | 0.00 | 89 | 1013.2 |
| 20260904034018 | 69 | 208 | 7.8 | 18.2 | 0.00 | 0.06 | 0.00 | 89 | 1013.2 |
| 20260904033518 | 69 | 245 | 8.7 | 16.5 | 0.00 | 0.06 | 0.00 | 89 | 1013.3 |
| 20260904033017 | 69 | 178 | 8.7 | 16.5 | 0.00 | 0.06 | 0.00 | 89 | 1013.3 |
| 20260904032518 | 69 | 194 | 7.0 | 16.5 | 0.00 | 0.06 | 0.00 | 89 | 1013.4 |
| 20260904032015 | 69 | 218 | 7.8 | 20.0 | 0.00 | 0.06 | 0.00 | 89 | 1013.4 |
| 20260904031515 | 69 | 164 | 7.8 | 20.0 | 0.00 | 0.06 | 0.00 | 89 | 1013.4 |
| 20260904031016 | 69 | 172 | 7.0 | 13.9 | 0.00 | 0.06 | 0.00 | 89 | 1013.5 |
| 20260904030515 | 69 | 243 | 7.8 | 17.4 | 0.00 | 0.06 | 0.00 | 89 | 1013.5 |
| 20260904030504 | 69 | 177 | 7.0 | 17.4 | 0.00 | 0.06 | 0.00 | 89 | 1013.6 |
| 20260904025519 | 69 | 216 | 7.0 | 17.4 | 0.00 | 0.06 | 0.00 | 90 | 1013.6 |
| 20260904025010 | 69 | 223 | 7.0 | 17.4 | 0.00 | 0.06 | 0.00 | 90 | 1013.7 |
| 20260904024509 | 69 | 227 | 7.8 | 16.5 | 0.00 | 0.06 | 0.00 | 90 | 1013.7 |
| 20260904024013 | 69 | 204 | 7.8 | 16.5 | 0.00 | 0.06 | 0.00 | 90 | 1013.7 |
| 20260904023950 | 69 | 214 | 7.0 | 13.9 | 0.00 | 0.06 | 0.00 | 90 | 1013.9 |
| 20260904023011 | 69 | 239 | 7.8 | 14.8 | 0.00 | 0.06 | 0.00 | 90 | 1013.8 |
| 20260904022509 | 69 | 205 | 7.8 | 14.8 | 0.00 | 0.06 | 0.00 | 90 | 1013.9 |
| 20260904022033 | 69 | 197 | 7.0 | 16.5 | 0.00 | 0.06 | 0.00 | 91 | 1014.0 |
| 20260904022016 | 69 | 225 | 7.0 | 13.9 | 0.00 | 0.06 | 0.00 | 90 | 1013.9 |
| 20260904021009 | 69 | 244 | 6.1 | 16.5 | 0.00 | 0.06 | 0.00 | 91 | 1013.9 |
| 20260904020509 | 69 | 205 | 5.2 | 13.9 | 0.00 | 0.06 | 0.00 | 91 | 1014.1 |
| 20260904020021 | 69 | 204 | 6.1 | 15.6 | 0.00 | 0.06 | 0.00 | 91 | 1014.2 |
| 20260904015503 | 69 | 163 | 6.1 | 16.5 | 0.00 | 0.06 | 0.00 | 91 | 1014.3 |
| 20260904015003 | 69 | 231 | 6.1 | 16.5 | 0.00 | 0.06 | 0.00 | 91 | 1014.3 |
| 20260904014502 | 69 | 229 | 5.2 | 14.8 | 0.00 | 0.06 | 0.00 | 92 | 1014.3 |
| 20260904014006 | 69 | 270 | 6.1 | 13.0 | 0.00 | 0.06 | 0.00 | 92 | 1014.4 |
| 20260904013503 | 69 | 220 | 7.0 | 13.0 | 0.00 | 0.06 | 0.00 | 92 | 1014.4 |
| 20260904013003 | 69 | 260 | 5.2 | 12.2 | 0.00 | 0.06 | 0.00 | 92 | 1014.5 |
| 20260904012509 | 69 | 215 | 4.3 | 10.4 | 0.00 | 0.06 | 0.00 | 92 | 1014.5 |
| 20260904012021 | 69 | 232 | 6.1 | 13.0 | 0.00 | 0.06 | 0.00 | 92 | 1014.7 |
| 20260904012005 | 69 | 229 | 5.2 | 10.4 | 0.00 | 0.06 | 0.00 | 92 | 1014.6 |
| 20260904011456 | 69 | 229 | 7.0 | 13.0 | 0.00 | 0.06 | 0.00 | 91 | 1015.0 |
| 20260904011446 | 69 | 207 | 7.0 | 13.9 | 0.00 | 0.06 | 0.00 | 92 | 1014.9 |
| 20260904011207 | 69 | 219 | 7.0 | 13.9 | 0.00 | 0.06 | 0.00 | 92 | 1014.8 |
| 20260904005957 | 69 | 125 | 7.8 | 14.8 | 0.00 | 0.06 | 0.00 | 91 | 1015.0 |
| 20260904005005 | 69 | 250 | 7.8 | 17.4 | 0.00 | 0.06 | 0.00 | 91 | 1015.0 |
| 20260904004506 | 69 | 216 | 7.0 | 17.4 | 0.00 | 0.06 | 0.00 | 91 | 1015.1 |
| 20260904004032 | 69 | 222 | 6.1 | 13.9 | 0.00 | 0.06 | 0.00 | 90 | 1015.3 |
| 20260904004022 | 69 | 224 | 7.0 | 13.9 | 0.00 | 0.06 | 0.00 | 90 | 1015.3 |
| 20260904004006 | 69 | 199 | 6.1 | 13.0 | 0.00 | 0.06 | 0.00 | 90 | 1015.1 |
| 20260904003516 | 69 | 201 | 6.1 | 13.0 | 0.00 | 0.06 | 0.00 | 90 | 1015.2 |
| 20260904002006 | 69 | 217 | 6.1 | 13.9 | 0.00 | 0.06 | 0.00 | 90 | 1015.3 |
| 20260904001606 | 69 | 206 | 6.1 | 15.6 | 0.00 | 0.06 | 0.00 | 90 | 1015.4 |
| 20260904001524 | 69 | 193 | 7.0 | 13.9 | 0.00 | 0.06 | 0.00 | 90 | 1015.4 |
| 20260904000504 | 70 | 218 | 5.2 | 15.6 | 0.00 | 0.06 | 0.00 | 90 | 1015.4 |
| 20260904000012 | 70 | 213 | 5.2 | 12.2 | 0.00 | 0.06 | 0.00 | 90 | 1015.4 |
| 20260903235504 | 70 | 243 | 4.3 | 12.2 | 0.00 | 0.06 | 0.00 | 90 | 1015.5 |
| 20260903235002 | 70 | 189 | 5.2 | 9.6 | 0.00 | 0.06 | 0.00 | 90 | 1015.6 |
| 20260903234507 | 70 | 203 | 5.2 | 11.3 | 0.00 | 0.06 | 0.00 | 90 | 1015.6 |
| 20260903234004 | 70 | 191 | 5.2 | 11.3 | 0.00 | 0.06 | 0.00 | 90 | 1015.7 |
| 20260903233503 | 70 | 266 | 5.2 | 12.2 | 0.00 | 0.06 | 0.00 | 90 | 1015.8 |
| 20260903233004 | 69 | 200 | 6.1 | 13.9 | 0.00 | 0.06 | 0.00 | 90 | 1015.7 |
| 20260903232626 | 70 | 223 | 4.3 | 10.4 | 0.00 | 0.06 | 0.00 | 90 | 1015.7 |
| 20260903232529 | 69 | 203 | 5.2 | 13.9 | 0.00 | 0.06 | 0.00 | 90 | 1015.6 |
| 20260903231504 | 69 | 185 | 5.2 | 10.4 | 0.00 | 0.06 | 0.00 | 90 | 1015.9 |
| 20260903231002 | 70 | 221 | 6.1 | 12.2 | 0.00 | 0.06 | 0.00 | 90 | 1016.0 |
| 20260903230501 | 70 | 235 | 6.1 | 12.2 | 0.00 | 0.06 | 0.00 | 90 | 1016.0 |
| 20260903225958 | 70 | 219 | 6.1 | 11.3 | 0.00 | 0.06 | 0.00 | 90 | 1016.0 |
| 20260903225500 | 69 | 204 | 6.1 | 14.8 | 0.00 | 0.06 | 0.00 | 90 | 1016.0 |
| 20260903224956 | 69 | 201 | 6.1 | 14.8 | 0.00 | 0.06 | 0.00 | 90 | 1016.0 |
| 20260903224501 | 69 | 190 | 6.1 | 12.2 | 0.00 | 0.06 | 0.00 | 90 | 1016.1 |
| 20260903223957 | 69 | 204 | 5.2 | 13.9 | 0.00 | 0.06 | 0.00 | 90 | 1016.2 |
| 20260903223459 | 69 | 183 | 4.3 | 13.9 | 0.00 | 0.06 | 0.00 | 90 | 1016.2 |
| 20260903222959 | 69 | 210 | 4.3 | 9.6 | 0.00 | 0.06 | 0.00 | 90 | 1016.3 |
| 20260903222500 | 70 | 238 | 3.5 | 9.6 | 0.00 | 0.06 | 0.00 | 90 | 1016.5 |
| 20260903222000 | 69 | 208 | 3.5 | 7.8 | 0.00 | 0.06 | 0.00 | 90 | 1016.4 |
| 20260903221500 | 70 | 227 | 4.3 | 9.6 | 0.00 | 0.06 | 0.00 | 90 | 1016.5 |
| 20260903221453 | 70 | 214 | 5.2 | 11.3 | 0.00 | 0.06 | 0.00 | 90 | 1016.6 |
| 20260903220502 | 70 | 231 | 6.1 | 11.3 | 0.00 | 0.06 | 0.00 | 90 | 1016.5 |
| 20260903215957 | 70 | 218 | 5.2 | 9.6 | 0.00 | 0.06 | 0.06 | 90 | 1016.5 |
| 20260903215946 | 70 | 166 | 5.2 | 11.3 | 0.00 | 0.06 | 0.06 | 90 | 1016.6 |
| 20260903214957 | 70 | 220 | 6.1 | 12.2 | 0.00 | 0.06 | 0.06 | 90 | 1016.7 |
| 20260903214450 | 69 | 158 | 7.0 | 14.8 | 0.00 | 0.06 | 0.06 | 90 | 1016.7 |
| 20260903213945 | 69 | 181 | 6.1 | 14.8 | 0.00 | 0.06 | 0.06 | 90 | 1016.8 |
| 20260903213446 | 69 | 207 | 4.3 | 11.3 | 0.00 | 0.06 | 0.06 | 90 | 1016.8 |
| 20260903212947 | 69 | 159 | 4.3 | 11.3 | 0.00 | 0.06 | 0.06 | 90 | 1016.9 |
| 20260903212446 | 69 | 237 | 4.3 | 11.3 | 0.00 | 0.06 | 0.06 | 90 | 1016.9 |
| 20260903211947 | 69 | 235 | 5.2 | 13.0 | 0.00 | 0.06 | 0.06 | 90 | 1016.9 |
| 20260903211532 | 69 | 241 | 5.2 | 12.2 | 0.00 | 0.06 | 0.06 | 90 | 1016.8 |
| 20260903211522 | 69 | 220 | 4.3 | 12.2 | 0.00 | 0.06 | 0.06 | 91 | 1016.9 |
| 20260903211454 | 69 | 177 | 5.2 | 13.0 | 0.00 | 0.06 | 0.06 | 90 | 1016.7 |
| 20260903210441 | 69 | 152 | 4.3 | 8.7 | 0.00 | 0.06 | 0.06 | 91 | 1017.0 |
| 20260903205448 | 69 | 216 | 5.2 | 13.9 | 0.00 | 0.06 | 0.06 | 91 | 1017.2 |
| 20260903204947 | 69 | 231 | 6.1 | 13.9 | 0.00 | 0.06 | 0.06 | 91 | 1017.3 |
| 20260903204446 | 69 | 197 | 5.2 | 9.6 | 0.00 | 0.06 | 0.06 | 92 | 1017.4 |
| 20260903203947 | 69 | 225 | 4.3 | 7.8 | 0.00 | 0.06 | 0.06 | 92 | 1017.4 |
| 20260903203453 | 69 | 212 | 3.5 | 7.8 | 0.00 | 0.06 | 0.06 | 92 | 1017.3 |
| 20260903203442 | 69 | 229 | 3.5 | 7.8 | 0.00 | 0.06 | 0.06 | 92 | 1017.5 |
| 20260903202437 | 69 | 189 | 3.5 | 7.8 | 0.00 | 0.06 | 0.06 | 92 | 1017.3 |
| 20260903201940 | 69 | 211 | 3.5 | 7.0 | 0.00 | 0.06 | 0.06 | 92 | 1017.4 |
| 20260903201438 | 69 | 215 | 3.5 | 8.7 | 0.00 | 0.06 | 0.06 | 91 | 1017.4 |
| 20260903200934 | 69 | 176 | 3.5 | 8.7 | 0.00 | 0.06 | 0.06 | 91 | 1017.3 |
| 20260903200439 | 69 | 217 | 3.5 | 8.7 | 0.00 | 0.06 | 0.06 | 91 | 1017.4 |
| 20260903195936 | 69 | 212 | 3.5 | 8.7 | 0.00 | 0.06 | 0.06 | 91 | 1017.4 |
| 20260903195435 | 69 | 205 | 3.5 | 7.8 | 0.00 | 0.06 | 0.06 | 91 | 1017.4 |
| 20260903195417 | 69 | 230 | 4.3 | 11.3 | 0.00 | 0.06 | 0.06 | 90 | 1017.4 |
| 20260903195102 | 69 | 199 | 2.6 | 7.8 | 0.00 | 0.06 | 0.06 | 91 | 1017.5 |
| 20260903194719 | 69 | 199 | 4.3 | 11.3 | 0.00 | 0.06 | 0.06 | 90 | 1017.3 |
| 20260903194529 | 69 | 230 | 3.5 | 10.4 | 0.00 | 0.06 | 0.06 | 90 | 1017.5 |
| 20260903192935 | 69 | 177 | 4.3 | 12.2 | 0.00 | 0.06 | 0.06 | 90 | 1017.3 |
| 20260903192439 | 69 | 228 | 4.3 | 12.2 | 0.00 | 0.06 | 0.06 | 90 | 1017.5 |
| 20260903191935 | 70 | 242 | 4.3 | 8.7 | 0.00 | 0.06 | 0.06 | 89 | 1017.4 |
| 20260903191923 | 70 | 208 | 4.3 | 10.4 | 0.00 | 0.06 | 0.06 | 89 | 1017.5 |
| 20260903190941 | 70 | 239 | 4.3 | 10.4 | 0.00 | 0.06 | 0.06 | 89 | 1017.4 |
| 20260903190438 | 70 | 194 | 4.3 | 11.3 | 0.00 | 0.06 | 0.06 | 88 | 1017.4 |
| 20260903185936 | 70 | 222 | 5.2 | 11.3 | 0.00 | 0.06 | 0.06 | 88 | 1017.5 |
| 20260903185435 | 70 | 258 | 5.2 | 12.2 | 0.00 | 0.06 | 0.06 | 88 | 1017.5 |
| 20260903184933 | 70 | 246 | 6.1 | 12.2 | 0.00 | 0.06 | 0.06 | 88 | 1017.5 |
| 20260903184433 | 70 | 234 | 5.2 | 12.2 | 0.00 | 0.06 | 0.06 | 87 | 1017.5 |
| 20260903183932 | 70 | 219 | 5.2 | 11.3 | 0.00 | 0.06 | 0.06 | 87 | 1017.5 |
| 20260903183434 | 70 | 220 | 5.2 | 13.9 | 0.00 | 0.06 | 0.06 | 87 | 1017.5 |
| 20260903182936 | 70 | 220 | 5.2 | 13.9 | 0.00 | 0.06 | 0.06 | 87 | 1017.6 |
| 20260903182520 | 70 | 228 | 5.2 | 13.0 | 0.00 | 0.06 | 0.06 | 87 | 1017.4 |
| 20260903182118 | 70 | 277 | 4.3 | 12.2 | 0.00 | 0.06 | 0.06 | 87 | 1017.5 |
| 20260903182100 | 71 | 217 | 5.2 | 13.0 | 0.00 | 0.06 | 0.06 | 86 | 1017.6 |
| 20260903182001 | 70 | 229 | 5.2 | 12.2 | 0.00 | 0.06 | 0.06 | 87 | 1017.4 |
| 20260903181057 | 70 | 237 | 4.3 | 10.4 | 0.00 | 0.06 | 0.06 | 87 | 1017.6 |
| 20260903180536 | 71 | 184 | 4.3 | 10.4 | 0.00 | 0.06 | 0.06 | 86 | 1017.6 |
| 20260903174935 | 71 | 235 | 5.2 | 12.2 | 0.00 | 0.06 | 0.06 | 86 | 1017.5 |
| 20260903174430 | 71 | 244 | 6.1 | 11.3 | 0.00 | 0.06 | 0.06 | 86 | 1017.6 |
| 20260903173930 | 71 | 194 | 7.0 | 12.2 | 0.00 | 0.06 | 0.06 | 85 | 1017.8 |
| 20260903173432 | 72 | 230 | 7.0 | 13.9 | 0.00 | 0.06 | 0.06 | 85 | 1017.8 |
| 20260903172959 | 71 | 228 | 7.8 | 18.2 | 0.00 | 0.06 | 0.06 | 86 | 1017.8 |
| 20260903172936 | 72 | 262 | 7.0 | 13.9 | 0.00 | 0.06 | 0.06 | 86 | 1017.8 |
| 20260903171931 | 71 | 221 | 7.0 | 18.2 | 0.00 | 0.06 | 0.06 | 85 | 1017.8 |
| 20260903171430 | 71 | 234 | 6.1 | 12.2 | 0.00 | 0.06 | 0.06 | 85 | 1017.8 |
| 20260903171006 | 71 | 219 | 7.0 | 14.8 | 0.00 | 0.06 | 0.06 | 85 | 1017.5 |
| 20260903170941 | 71 | 225 | 7.0 | 13.9 | 0.00 | 0.06 | 0.06 | 85 | 1017.6 |
| 20260903165931 | 71 | 232 | 7.0 | 14.8 | 0.00 | 0.06 | 0.06 | 85 | 1017.5 |
| 20260903165430 | 72 | 219 | 7.8 | 14.8 | 0.00 | 0.06 | 0.06 | 84 | 1017.6 |
| 20260903164931 | 72 | 192 | 7.8 | 16.5 | 0.00 | 0.06 | 0.06 | 84 | 1017.6 |
| 20260903164433 | 72 | 240 | 7.8 | 16.5 | 0.00 | 0.06 | 0.06 | 84 | 1017.6 |
| 20260903163933 | 72 | 187 | 8.7 | 16.5 | 0.00 | 0.06 | 0.06 | 83 | 1017.5 |
| 20260903163433 | 72 | 210 | 8.7 | 16.5 | 0.00 | 0.06 | 0.06 | 83 | 1017.6 |
| 20260903163039 | 72 | 190 | 7.0 | 15.6 | 0.00 | 0.06 | 0.06 | 84 | 1018.0 |
| 20260903163029 | 72 | 233 | 7.0 | 15.6 | 0.00 | 0.06 | 0.06 | 83 | 1018.0 |
| 20260903162945 | 72 | 243 | 7.0 | 15.6 | 0.00 | 0.06 | 0.06 | 84 | 1017.8 |
| 20260903161434 | 72 | 256 | 7.8 | 14.8 | 0.00 | 0.06 | 0.06 | 83 | 1017.9 |
| 20260903160932 | 72 | 220 | 7.8 | 14.8 | 0.00 | 0.06 | 0.06 | 83 | 1017.8 |
| 20260903160537 | 73 | 249 | 8.7 | 19.1 | 0.00 | 0.06 | 0.06 | 81 | 1017.8 |
| 20260903160451 | 73 | 233 | 7.8 | 15.6 | 0.00 | 0.06 | 0.06 | 82 | 1017.5 |
| 20260903160140 | 72 | 222 | 8.7 | 16.5 | 0.00 | 0.06 | 0.06 | 82 | 1017.6 |
| 20260903154931 | 73 | 228 | 7.8 | 19.1 | 0.00 | 0.06 | 0.06 | 81 | 1017.8 |
| 20260903154430 | 73 | 224 | 7.0 | 12.2 | 0.00 | 0.06 | 0.06 | 81 | 1017.9 |
| 20260903153930 | 73 | 234 | 7.8 | 18.2 | 0.00 | 0.06 | 0.06 | 80 | 1017.9 |
| 20260903153432 | 73 | 237 | 7.8 | 18.2 | 0.00 | 0.06 | 0.06 | 80 | 1018.0 |
| 20260903152934 | 73 | 194 | 7.0 | 16.5 | 0.00 | 0.06 | 0.06 | 80 | 1018.0 |
| 20260903152432 | 73 | 201 | 7.8 | 14.8 | 0.00 | 0.06 | 0.06 | 80 | 1017.9 |
| 20260903152425 | 73 | 225 | 7.0 | 14.8 | 0.00 | 0.06 | 0.06 | 79 | 1018.0 |
| 20260903151433 | 74 | 204 | 7.8 | 14.8 | 0.00 | 0.06 | 0.06 | 78 | 1018.0 |
| 20260903150931 | 74 | 231 | 7.8 | 15.6 | 0.00 | 0.06 | 0.06 | 78 | 1018.1 |
| 20260903150432 | 74 | 227 | 8.7 | 15.6 | 0.00 | 0.06 | 0.06 | 78 | 1018.0 |
| 20260903150000 | 73 | 236 | 10.4 | 22.6 | 0.00 | 0.06 | 0.06 | 77 | 1017.9 |
| 20260903145938 | 73 | 241 | 9.6 | 16.5 | 0.00 | 0.06 | 0.06 | 78 | 1017.9 |
| 20260903144931 | 74 | 237 | 11.3 | 22.6 | 0.00 | 0.06 | 0.06 | 77 | 1017.8 |
| 20260903144432 | 73 | 268 | 12.2 | 25.2 | 0.00 | 0.06 | 0.06 | 77 | 1017.9 |
| 20260903143933 | 73 | 190 | 12.2 | 25.2 | 0.00 | 0.06 | 0.06 | 77 | 1017.8 |
| 20260903143432 | 73 | 231 | 11.3 | 21.7 | 0.00 | 0.06 | 0.06 | 79 | 1017.8 |
| 20260903142930 | 73 | 240 | 11.3 | 21.7 | 0.00 | 0.06 | 0.06 | 79 | 1017.8 |
| 20260903142432 | 73 | 199 | 11.3 | 22.6 | 0.00 | 0.06 | 0.06 | 78 | 1017.8 |
| 20260903141934 | 73 | 229 | 12.2 | 22.6 | 0.00 | 0.06 | 0.06 | 78 | 1017.6 |
| 20260903141430 | 74 | 211 | 11.3 | 20.9 | 0.00 | 0.06 | 0.06 | 78 | 1017.8 |
| 20260903140950 | 73 | 233 | 9.6 | 21.7 | 0.00 | 0.06 | 0.06 | 80 | 1017.8 |
| 20260903140933 | 74 | 258 | 9.6 | 19.1 | 0.00 | 0.06 | 0.06 | 79 | 1017.8 |
| 20260903140644 | 73 | 242 | 8.7 | 21.7 | 0.00 | 0.06 | 0.06 | 81 | 1017.9 |
| 20260903135423 | 73 | 197 | 8.7 | 20.9 | 0.00 | 0.06 | 0.06 | 80 | 1017.7 |
| 20260903134919 | 73 | 234 | 10.4 | 18.2 | 0.00 | 0.06 | 0.06 | 81 | 1017.9 |
| 20260903134413 | 73 | 256 | 11.3 | 20.0 | 0.00 | 0.06 | 0.06 | 79 | 1017.9 |
| 20260903133907 | 73 | 243 | 10.4 | 20.0 | 0.00 | 0.06 | 0.06 | 77 | 1017.8 |
| 20260903133518 | 73 | 273 | 9.6 | 20.0 | 0.00 | 0.06 | 0.06 | 77 | 1017.7 |
| 20260903133422 | 73 | 272 | 9.6 | 20.0 | 0.00 | 0.06 | 0.06 | 79 | 1017.8 |
| 20260903132405 | 73 | 195 | 10.4 | 22.6 | 0.00 | 0.06 | 0.06 | 79 | 1017.7 |
| 20260903131909 | 72 | 252 | 12.2 | 25.2 | 0.00 | 0.06 | 0.06 | 78 | 1017.6 |
| 20260903131408 | 73 | 253 | 11.3 | 25.2 | 0.00 | 0.06 | 0.06 | 77 | 1017.5 |
| 20260903131358 | 73 | 270 | 10.4 | 17.4 | 0.00 | 0.06 | 0.06 | 77 | 1017.6 |
| 20260903130504 | 73 | 243 | 10.4 | 20.9 | 0.00 | 0.06 | 0.06 | 79 | 1017.6 |
| 20260903130425 | 74 | 233 | 11.3 | 20.9 | 0.00 | 0.06 | 0.06 | 79 | 1017.6 |
| 20260903125647 | 71 | 226 | 10.4 | 20.9 | 0.00 | 0.06 | 0.06 | 82 | 1017.6 |
| 20260903125510 | 73 | 249 | 10.4 | 20.9 | 0.00 | 0.06 | 0.06 | 80 | 1017.6 |
| 20260903125123 | 71 | 225 | 11.3 | 20.9 | 0.00 | 0.06 | 0.06 | 82 | 1017.6 |
| 20260903124935 | 71 | 210 | 9.6 | 20.9 | 0.00 | 0.06 | 0.06 | 82 | 1017.5 |
| 20260903123402 | 71 | 224 | 9.6 | 20.0 | 0.00 | 0.06 | 0.06 | 83 | 1017.6 |
| 20260903122908 | 71 | 219 | 9.6 | 20.0 | 0.00 | 0.06 | 0.06 | 83 | 1017.5 |
| 20260903122403 | 71 | 239 | 9.6 | 15.6 | 0.00 | 0.06 | 0.06 | 84 | 1017.5 |
| 20260903121926 | 71 | 221 | 9.6 | 21.7 | 0.00 | 0.06 | 0.06 | 84 | 1017.4 |
| 20260903121423 | 71 | 212 | 10.4 | 21.7 | 0.00 | 0.06 | 0.06 | 84 | 1017.4 |
| 20260903120921 | 72 | 256 | 11.3 | 21.7 | 0.01 | 0.06 | 0.06 | 85 | 1017.4 |
| 20260903115902 | 71 | 210 | 9.6 | 22.6 | 0.01 | 0.06 | 0.06 | 84 | 1017.4 |
| 20260903115409 | 72 | 237 | 7.8 | 16.5 | 0.01 | 0.06 | 0.06 | 84 | 1017.3 |
| 20260903115200 | 73 | 218 | 8.7 | 21.7 | 0.01 | 0.06 | 0.06 | 85 | 1017.3 |
| 20260903114935 | 72 | 227 | 8.7 | 16.5 | 0.01 | 0.06 | 0.06 | 85 | 1017.3 |
| 20260903113902 | 72 | 256 | 9.6 | 21.7 | 0.01 | 0.06 | 0.06 | 85 | 1017.2 |
| 20260903113505 | 72 | 234 | 9.6 | 21.7 | 0.01 | 0.06 | 0.06 | 87 | 1017.3 |
| 20260903113003 | 71 | 249 | 9.6 | 20.9 | 0.01 | 0.06 | 0.06 | 89 | 1017.3 |
| 20260903111902 | 70 | 243 | 8.7 | 20.9 | 0.01 | 0.06 | 0.06 | 90 | 1017.4 |
| 20260903111400 | 70 | 137 | 7.8 | 14.8 | 0.01 | 0.06 | 0.05 | 88 | 1017.4 |
| 20260903110901 | 71 | 254 | 8.7 | 18.2 | 0.00 | 0.05 | 0.05 | 87 | 1017.4 |
| 20260903110411 | 71 | 223 | 9.6 | 18.2 | 0.00 | 0.05 | 0.05 | 86 | 1017.3 |
| 20260903105903 | 71 | 235 | 9.6 | 20.0 | 0.00 | 0.05 | 0.05 | 86 | 1017.4 |
| 20260903105357 | 71 | 236 | 11.3 | 23.5 | 0.00 | 0.05 | 0.05 | 86 | 1017.4 |
| 20260903105343 | 71 | 199 | 13.0 | 26.1 | 0.00 | 0.05 | 0.05 | 86 | 1017.4 |
| 20260903104356 | 71 | 273 | 11.3 | 26.1 | 0.00 | 0.05 | 0.05 | 86 | 1017.3 |
| 20260903103856 | 71 | 257 | 9.6 | 26.1 | 0.00 | 0.05 | 0.05 | 87 | 1017.1 |
| 20260903103357 | 71 | 243 | 10.4 | 26.1 | 0.00 | 0.05 | 0.05 | 87 | 1017.2 |
| 20260903102858 | 71 | 225 | 9.6 | 18.2 | 0.00 | 0.05 | 0.05 | 88 | 1017.1 |
| 20260903102400 | 71 | 250 | 9.6 | 17.4 | 0.00 | 0.05 | 0.05 | 89 | 1017.2 |
| 20260903102341 | 70 | 240 | 9.6 | 17.4 | 0.00 | 0.05 | 0.05 | 90 | 1017.3 |
| 20260903101358 | 69 | 227 | 8.7 | 16.5 | 0.00 | 0.05 | 0.05 | 92 | 1017.3 |
| 20260903100858 | 69 | 237 | 7.8 | 16.5 | 0.00 | 0.05 | 0.05 | 93 | 1017.1 |
| 20260903100358 | 69 | 218 | 7.0 | 14.8 | 0.00 | 0.05 | 0.05 | 94 | 1017.1 |
| 20260903095858 | 68 | 219 | 7.0 | 14.8 | 0.00 | 0.05 | 0.05 | 94 | 1017.1 |
| 20260903095838 | 68 | 222 | 7.8 | 18.2 | 0.00 | 0.05 | 0.05 | 95 | 1017.1 |
| 20260903094856 | 68 | 245 | 7.8 | 18.2 | 0.00 | 0.05 | 0.05 | 95 | 1017.2 |
| 20260903094839 | 68 | 247 | 7.0 | 14.8 | 0.00 | 0.05 | 0.05 | 96 | 1017.1 |
| 20260903094609 | 68 | 189 | 7.8 | 16.5 | 0.00 | 0.05 | 0.05 | 96 | 1017.1 |
| 20260903093357 | 68 | 229 | 6.1 | 13.0 | 0.00 | 0.05 | 0.05 | 96 | 1017.1 |
| 20260903093346 | 67 | 204 | 7.0 | 13.9 | 0.00 | 0.05 | 0.05 | 97 | 1017.0 |
| 20260903092843 | 67 | 204 | 7.0 | 15.6 | 0.00 | 0.05 | 0.05 | 97 | 1017.1 |
| 20260903092611 | 67 | 167 | 6.1 | 14.8 | 0.00 | 0.05 | 0.05 | 97 | 1017.1 |
| 20260903091354 | 67 | 242 | 7.0 | 15.6 | 0.00 | 0.05 | 0.05 | 97 | 1017.1 |
| 20260903090857 | 67 | 210 | 6.1 | 14.8 | 0.01 | 0.05 | 0.05 | 97 | 1016.9 |
| 20260903090847 | 67 | 185 | 7.0 | 14.8 | 0.01 | 0.05 | 0.05 | 97 | 1016.9 |
| 20260903085851 | 67 | 171 | 7.0 | 13.9 | 0.01 | 0.05 | 0.05 | 98 | 1016.8 |
| 20260903085840 | 67 | 222 | 6.1 | 13.0 | 0.01 | 0.05 | 0.05 | 98 | 1016.8 |
| 20260903084853 | 66 | 244 | 6.1 | 17.4 | 0.01 | 0.05 | 0.05 | 97 | 1016.8 |
| 20260903084838 | 66 | 211 | 6.1 | 17.4 | 0.01 | 0.05 | 0.05 | 97 | 1016.6 |
| 20260903083852 | 66 | 247 | 5.2 | 13.9 | 0.01 | 0.05 | 0.05 | 97 | 1016.6 |
| 20260903083353 | 66 | 225 | 6.1 | 13.0 | 0.02 | 0.05 | 0.05 | 98 | 1016.5 |
| 20260903082855 | 66 | 237 | 6.1 | 13.9 | 0.02 | 0.05 | 0.05 | 97 | 1016.5 |
| 20260903082354 | 65 | 233 | 6.1 | 13.9 | 0.02 | 0.05 | 0.05 | 97 | 1016.5 |
| 20260903081851 | 65 | 179 | 5.2 | 13.9 | 0.02 | 0.05 | 0.05 | 97 | 1016.5 |
| 20260903081352 | 65 | 218 | 5.2 | 13.9 | 0.02 | 0.05 | 0.05 | 97 | 1016.6 |
| 20260903080847 | 65 | 225 | 6.1 | 13.9 | 0.02 | 0.04 | 0.04 | 97 | 1016.6 |
| 20260903080348 | 65 | 177 | 7.0 | 13.9 | 0.02 | 0.04 | 0.04 | 97 | 1016.6 |
| 20260903075851 | 65 | 197 | 6.1 | 13.0 | 0.02 | 0.04 | 0.04 | 97 | 1016.7 |
| 20260903075347 | 65 | 232 | 6.1 | 12.2 | 0.02 | 0.04 | 0.04 | 97 | 1016.6 |
| 20260903074846 | 65 | 177 | 6.1 | 14.8 | 0.02 | 0.04 | 0.04 | 97 | 1016.4 |
| 20260903074341 | 65 | 212 | 6.1 | 14.8 | 0.02 | 0.04 | 0.04 | 96 | 1016.5 |
| 20260903073842 | 65 | 187 | 6.1 | 14.8 | 0.02 | 0.04 | 0.04 | 96 | 1016.5 |
| 20260903073344 | 65 | 239 | 7.0 | 14.8 | 0.02 | 0.03 | 0.03 | 96 | 1016.5 |
| 20260903072841 | 65 | 194 | 7.0 | 13.9 | 0.02 | 0.03 | 0.03 | 96 | 1016.7 |
| 20260903072342 | 65 | 229 | 7.0 | 13.9 | 0.02 | 0.03 | 0.03 | 96 | 1016.6 |
| 20260903071844 | 65 | 279 | 7.0 | 14.8 | 0.02 | 0.03 | 0.03 | 96 | 1016.5 |
| 20260903071341 | 65 | 214 | 7.8 | 15.6 | 0.02 | 0.03 | 0.03 | 96 | 1016.5 |
| 20260903070838 | 65 | 240 | 7.0 | 15.6 | 0.01 | 0.02 | 0.02 | 96 | 1016.7 |
| 20260903070336 | 65 | 193 | 6.1 | 14.8 | 0.02 | 0.02 | 0.02 | 96 | 1016.7 |
| 20260903065838 | 65 | 220 | 6.1 | 13.0 | 0.02 | 0.02 | 0.02 | 95 | 1016.7 |
| 20260903065337 | 65 | 158 | 6.1 | 13.9 | 0.02 | 0.02 | 0.02 | 95 | 1016.7 |
| 20260903064838 | 65 | 244 | 6.1 | 13.9 | 0.02 | 0.02 | 0.02 | 95 | 1016.6 |
| 20260903064338 | 65 | 225 | 6.1 | 13.0 | 0.02 | 0.02 | 0.02 | 95 | 1016.6 |
| 20260903063835 | 65 | 231 | 6.1 | 12.2 | 0.02 | 0.02 | 0.02 | 94 | 1016.7 |
| 20260903063337 | 65 | 197 | 6.1 | 13.9 | 0.02 | 0.02 | 0.02 | 94 | 1016.7 |
| 20260903062835 | 65 | 223 | 6.1 | 13.9 | 0.02 | 0.02 | 0.02 | 94 | 1016.6 |
| 20260903062823 | 65 | 222 | 5.2 | 11.3 | 0.02 | 0.02 | 0.02 | 93 | 1016.5 |
| 20260903061833 | 65 | 179 | 5.2 | 13.0 | 0.02 | 0.02 | 0.02 | 93 | 1016.5 |
| 20260903061334 | 65 | 171 | 5.2 | 13.0 | 0.02 | 0.02 | 0.02 | 92 | 1016.6 |
| 20260903060836 | 66 | 165 | 5.2 | 11.3 | 0.02 | 0.02 | 0.02 | 92 | 1016.5 |
| 20260903060332 | 66 | 246 | 5.2 | 12.2 | 0.01 | 0.01 | 0.01 | 91 | 1016.4 |
| 20260903055835 | 66 | 239 | 6.1 | 12.2 | 0.01 | 0.01 | 0.01 | 90 | 1016.4 |
| 20260903055331 | 66 | 212 | 6.1 | 13.9 | 0.01 | 0.01 | 0.01 | 90 | 1016.4 |
| 20260903054833 | 67 | 181 | 6.1 | 15.6 | 0.01 | 0.01 | 0.00 | 89 | 1016.4 |